Starlink 32273

operational
NORAD ID: 61956 Int'l Des: 2024-209 Owner: SPXS Country: US Constellation: starlink
LEOCIRCULAR

About Starlink 32273

Description loading...

Live Position

Loading 3D Globe...

Upcoming Passes

Altitude History

Altitude vs Time

uPlot chart will show altitude changes over time

Two-Line Element Set

1 61956U 24209T 26094.51977075 .00050025 00000-0 16909-2 0 9995
2 61956 53.1619 22.2781 0001501 75.7023 284.4144 15.30179308 78859
Epoch: Apr 4, 2026 • Age: 20 hours

Current Status

Altitude 482.6 km
Velocity 7.62 km/s
Sub-Earth Point -24.98°S, 33.66°E
Launch Date Nov 14, 2024
Age 1.3 years
Type internet

Technical Details

Classification Payload
Mass 730.00 kg
Dry Mass 700.00 kg
Total Mass 730.00 kg
Length 0.30 m
Diameter 4.10 m
Span 29.00 m
Shape Box + pan
Manufacturer SPXS
Bus Type Starlink V2M
Phase Status In Orbit
Owner/State SPXS/US

Large Constellations

Loading constellations...